Regional Weather Roundup
Issued by NWS

Home | Current Version | Previous Version | Graphics & Text | Print | Product List | Glossary Off
Versions: 1 2 3 4 5 6 7 8 9 10 11 12 13 14 15 16 17 18 19 20 21 22 23 24 25 26 27 28 29 30 31 32 33 34 35 36 37 38 39 40 41 42 43 44 45 46 47 48 49 50

000
ASUS43 KLSX 210707
RWRMO

WEATHER SUMMARY FOR MISSOURI
NATIONAL WEATHER SERVICE SPRINGFIELD MO
200 AM CDT SUN SEP 21 2014

NOTE: "FAIR" INDICATES FEW OR NO CLOUDS BELOW 12,000 FEET WITH NO
       SIGNIFICANT WEATHER AND/OR OBSTRUCTIONS TO VISIBILITY.
       CURRENT SKY AND/OR WEATHER CONDITIONS ARE NOT AVAILABLE FOR
       CHILLICOTHE AND FARMINGTON.

MOZ001>031-035>038-043-044-053-054-210800-
...NORTHERN AND WESTERN MISSOURI...

CITY           SKY/WX    TMP DP  RH WIND       PRES   REMARKS
KANSAS CTY INT CLEAR     68  64  87 N16G22    30.04R
KANSAS C DTWN  CLEAR     70  67  90 NW5       30.02R
LEE`S SUMMIT   CLEAR     67  66  97 SW6       30.01R FOG
ST JOSEPH      CLEAR     64  58  80 N10       30.06R
CHILLICOTHE      N/A     68  55  63 N14G28    30.02R
KIRKSVILLE     CLEAR     65  51  60 N18G24    29.99R

$$
MOZ066>068-077>081-088>096-101>105-210800-
...SOUTHWEST MISSOURI...

CITY           SKY/WX    TMP DP  RH WIND       PRES   REMARKS
SPRINGFIELD    MOCLDY    70  67  90 S6        30.03R
JOPLIN         MOCLDY    75  67  76 SW7       30.03R

$$
MOZ032>034-039>042-045>050-055>058-069>072-210800-
...CENTRAL MISSOURI...

CITY           SKY/WX    TMP DP  RH WIND       PRES   REMARKS
COLUMBIA       CLEAR     71  69  93 W6        29.96S
JEFFERSON CITY CLEAR     74  69  85 CALM      29.95S
ROLLA          MOCLDY    70  67  90 SW8       29.97S
SEDALIA        CLEAR     72  68  87 W7        29.98S
WHITEMAN AFB   CLEAR     70  68  93 W7        29.98R
OSAGE BEACH    PTCLDY    72  66  83 W5        29.99R

$$
MOZ051-052-059>065-210800-
...EAST CENTRAL MISSOURI...

CITY           SKY/WX    TMP DP  RH WIND       PRES   REMARKS
ST LOUIS INTL  MOCLDY    76  68  76 W12       29.91S
SPIRIT OF STL  LGT RAIN  73  69  87 SW8       29.91R
ST CHARLES     PTCLDY    74  70  87 W6        29.89S

$$
MOZ072>076-082>087-097>100-106>115-210800-
...SOUTH CENTRAL AND SOUTHEAST MISSOURI...

CITY           SKY/WX    TMP DP  RH WIND       PRES   REMARKS
CAPE GIRARDEAU CLEAR     67  65  93 NW3       29.95F
FARMINGTON     CLEAR     72  66  83 CALM      29.99S
POPLAR BLUFF   CLEAR     69  65  86 SW5       29.96F
WEST PLAINS    CLEAR     69  66  90 W5        30.04R

$$


USA.gov is the U.S. government's official web portal to all federal, state and local government web resources and services.